Location: Unspecified
(26.1220°N, 0.0000°E)
Time: 23:33:23
(UTC+00:00)

Hubble Space Telescope - Visible Passes

Search period start: 21 May 2019 00:00
Search period end: 31 May 2019 00:00
Orbit: 536 x 540 km, 28.5° (Epoch: 21 May)

Date Brightness Start Highest point End Pass type
(mag) Time Alt. Az. Time Alt. Az. Time Alt. Az.
21 May 2.6 20:28:11 10° WSW 20:30:53 19° SSW 20:30:53 19° SSW visible
22 May 2.9 20:18:14 10° WSW 20:20:33 15° SSW 20:20:57 14° SSW visible
23 May 3.2 20:08:51 10° SW 20:09:58 11° SSW 20:11:02 10° SSW visible
